Wetbulb
50.91 51.62 51.86 52.25 52.91 53.16 53.19 53.29 53.33 53.53 53.78 54.39 54.76 55.91 56.76 57.18 56.75 53.94 52.31 54.61 51.05 47.24 49.78 51.76 51.95 49.46 50.05 49.53 46.51 49.46 47.02 47.71 45.23 41.53 44.76 42.34 40.58 42.09 42.28 44.26 41.72 39.75 37.67 36.49 37.70 35.10 34.36 54.15 53.63 48.01 51.15 54.29 55.26 55.02
52.02 52.23 52.54 52.73 53.08 53.22 53.32 53.55 53.51 53.60 53.95 54.21 54.80 55.22 56.17 56.47 56.63 55.57 50.23 53.24 54.09 49.69 49.61 54.14 54.64 55.18 53.81 52.05 48.75 48.50 47.94 47.94 47.78 43.73 49.00 45.46 44.36 44.25 43.80 38.69 47.18 40.98 42.62 40.53 42.56 43.33 51.01 53.45 52.26 53.61 54.15 53.33 53.24 53.64
52.09 52.34 52.76 52.94 53.23 53.31 53.38 53.78 53.96 54.00 54.26 54.48 54.78 55.20 55.69 55.69 55.73 55.51 51.64 51.36 50.52 47.73 48.11 49.31 48.52 53.97 54.82 54.48 54.76 46.91 49.17 51.75 49.98 53.74 49.33 47.80 43.61 46.43 40.80 41.42 44.79 46.96 48.08 44.11 44.91 48.16 50.65 51.90 52.82 53.43 54.17 53.68 54.69 54.82
52.52 52.92 53.48 53.74 53.76 53.75 53.79 53.91 53.96 54.00 54.22 54.19 54.52 54.92 55.22 55.06 54.87 55.45 51.10 51.87 50.85 49.30 43.66 46.14 53.34 52.10 55.60 55.34 54.51 53.81 52.64 53.44 53.16 52.59 48.86 46.66 43.27 48.74 43.67 45.23 44.62 47.05 46.53 44.28 43.54 45.87 49.84 51.78 52.56 53.45 54.07 54.82 55.44 55.72
53.03 53.52 53.46 53.86 53.86 53.82 53.82 53.80 53.74 53.88 53.95 54.11 54.27 54.46 54.66 54.52 53.95 54.20 53.43 52.52 53.84 49.23 42.80 45.91 50.61 52.84 54.13 54.09 53.12 53.32 52.70 51.96 50.94 48.12 46.46 44.20 46.97 45.73 45.38 44.44 43.78 47.68 46.80 43.08 41.98 47.83 48.64 49.52 52.18 53.95 52.91 52.29 54.03 53.55
53.12 53.09 53.48 53.42 53.48 53.66 53.54 53.36 53.84 54.42 54.46 53.99 54.00 54.36 54.21 54.01 53.32 52.41 47.53 52.91 54.71 54.18 47.84 42.87 50.27 50.56 52.15 52.82 51.86 51.47 52.11 52.52 51.75 47.96 45.92 48.59 50.48 46.91 41.48 39.77 46.95 49.03 50.70 49.87 47.24 50.33 50.46 52.07 53.25 53.42 51.82 52.33 54.36 53.60
52.99 52.97 53.35 53.17 53.07 52.97 52.97 52.77 53.01 53.24 53.29 53.19 53.26 53.39 53.03 52.42 52.43 49.01 47.15 51.10 54.04 53.64 47.91 44.58 44.71 49.92 52.09 51.49 51.32 51.34 52.74 51.40 50.55 48.70 47.54 48.26 47.29 46.66 42.96 40.79 47.53 49.71 50.99 50.96 51.88 50.59 47.83 49.03 47.32 51.05 51.69 53.87 54.28 55.81
52.61 52.77 52.96 53.00 52.98 52.82 52.70 52.60 52.37 52.49 52.33 52.26 51.92 51.81 51.98 52.01 51.87 50.64 53.03 53.95 54.59 50.70 50.10 44.66 44.10 46.53 51.75 47.60 47.28 52.60 50.32 50.84 50.14 48.17 48.68 47.14 46.67 45.79 39.99 44.70 46.22 50.94 51.49 50.84 50.02 49.95 49.23 50.45 50.19 49.79 51.53 52.51 52.98 53.53
52.62 52.72 52.89 52.91 52.97 52.78 52.74 52.95 52.60 52.35 52.21 52.25 52.10 52.15 52.42 50.65 49.98 50.44 54.90 55.24 54.44 50.80 44.46 47.34 42.68 41.29 51.42 48.96 49.85 48.78 49.47 44.82 50.13 45.14 45.85 46.58 44.43 41.27 46.14 45.65 47.26 50.85 49.94 49.89 50.68 50.22 49.92 49.13 49.55 50.43 50.25 50.74 50.47 51.90
52.59 52.70 52.95 52.96 53.04 52.94 52.73 52.62 52.35 51.83 51.45 52.32 52.30 50.35 49.49 51.81 55.95 54.91 50.65 47.76 47.97 49.89 50.63 47.04 49.63 45.30 49.29 48.23 47.72 47.47 49.02 45.55 42.76 45.01 48.10 43.06 43.33 48.27 50.12 50.13 50.86 52.65 52.17 51.71 48.93 47.55 48.49 47.94 48.33 47.80 48.02 48.50 50.43 52.48
52.56 53.02 52.81 52.56 52.35 52.25 52.12 52.43 53.10 52.42 51.89 50.94 51.00 51.36 54.47 55.25 53.43 52.68 48.00 46.41 46.97 44.86 46.97 49.10 47.83 46.35 51.69 46.51 46.33 49.28 45.79 46.26 41.22 44.85 44.67 42.73 42.31 48.26 51.58 51.86 53.53 52.74 52.26 51.62 51.15 50.26 49.70 49.02 48.40 48.90 49.38 51.52 52.27 53.03
52.48 52.54 52.34 51.85 51.98 52.67 53.22 52.89 52.42 53.26 54.10 51.83 50.50 52.87 54.05 51.43 50.09 45.93 45.63 47.19 46.37 44.44 49.64 47.38 48.85 49.63 50.99 52.66 48.15 47.88 45.30 45.96 40.61 49.30 44.16 40.64 45.63 51.58 52.05 52.25 52.39 52.28 51.97 51.14 51.35 49.82 49.90 50.59 50.32 50.36 50.23 50.82 52.27 53.54
52.09 52.34 52.03 51.84 52.06 52.54 53.27 53.40 52.73 52.07 52.48 56.87 54.26 51.66 50.68 48.83 38.71 41.71 37.93 42.15 44.19 48.23 49.59 50.16 48.32 49.33 49.97 50.90 48.40 47.37 43.84 41.89 49.02 42.94 41.46 44.27 48.98 51.18 50.93 51.16 50.98 51.72 51.41 50.39 50.13 50.16 50.66 50.76 51.63 51.29 51.08 51.99 53.42 54.17
51.95 52.14 51.79 51.80 52.40 52.87 53.24 52.60 52.40 52.59 54.13 51.76 48.27 36.68 43.76 43.00 44.18 44.87 45.67 46.78 50.01 50.08 49.80 50.06 48.84 48.41 48.47 45.99 46.92 42.51 44.52 46.69 40.54 38.62 41.00 48.54 50.42 50.74 50.88 50.89 49.83 49.13 49.44 49.12 48.95 49.17 49.14 50.07 49.75 51.71 52.35 53.13 52.74 52.12
51.81 52.04 52.14 51.60 52.04 52.91 52.63 52.05 51.93 54.32 53.76 49.46 49.10 39.64 43.11 47.60 48.21 48.60 51.72 50.99 50.15 51.70 50.28 49.67 49.13 49.00 46.47 45.30 45.96 44.76 42.33 39.47 40.82 38.38 45.94 50.30 51.49 50.08 49.42 49.37 48.64 48.44 48.73 48.02 48.07 48.02 49.13 49.84 49.63 50.18 51.62 51.09 52.07 52.14
51.89 51.23 51.05 53.23 53.76 53.03 51.61 52.40 55.09 57.90 55.20 51.35 49.30 46.52 48.58 47.76 47.49 47.07 47.48 48.07 50.44 49.99 51.70 49.98 46.21 43.37 41.45 42.03 42.24 41.13 40.05 36.73 42.46 45.20 48.27 51.92 50.32 49.82 48.93 49.05 48.59 49.30 48.65 47.89 48.46 49.00 48.76 48.78 49.20 50.48 50.34 49.65 50.80 50.12
51.22 52.47 52.43 53.03 52.42 51.64 51.37 51.52 57.52 52.38 50.21 48.50 47.51 50.58 50.55 49.64 48.57 49.21 49.05 48.06 52.57 47.23 44.04 44.02 39.30 38.03 42.26 39.94 39.63 40.42 38.67 41.38 44.10 46.75 50.47 51.27 49.80 49.28 49.43 49.05 49.08 49.08 48.32 48.16 48.20 48.51 48.56 49.18 50.20 48.94 46.89 48.49 49.00 48.02
51.67 54.44 52.44 51.98 51.76 53.34 56.35 54.75 53.80 50.09 45.25 48.31 47.11 48.39 49.40 50.00 50.12 51.02 51.06 51.64 49.74 46.55 44.48 39.74 41.60 36.33 35.44 35.27 37.03 40.38 43.05 43.73 46.00 47.73 49.03 50.55 50.11 49.36 49.65 48.96 49.63 49.57 48.91 48.34 48.43 49.54 49.67 48.63 46.70 45.63 45.56 46.57 46.85 47.54
51.77 52.36 52.40 52.78 52.61 51.72 53.31 52.89 54.37 46.31 47.44 49.02 49.86 50.45 49.78 50.06 51.56 51.62 50.28 50.11 48.88 48.14 44.76 41.98 38.77 36.82 36.90 40.02 40.10 42.09 44.16 44.76 44.78 45.65 46.32 47.58 48.03 47.98 48.23 49.15 49.57 49.40 49.57 48.81 47.62 47.08 47.91 48.91 48.68 48.51 48.33 47.87 47.18 48.27
51.65 51.95 52.24 53.69 52.75 53.41 50.72 51.71 57.84 50.01 45.62 48.59 51.34 48.98 50.39 49.30 50.03 49.79 49.18 49.44 47.70 47.01 42.71 40.71 39.80 40.69 40.53 42.88 44.99 44.31 44.31 45.72 44.86 43.36 43.75 45.40 46.83 47.08 47.30 47.76 47.60 48.19 48.36 49.00 50.21 48.37 48.75 48.38 49.05 49.27 49.30 48.09 48.30 46.61
52.10 55.08 53.52 53.41 55.54 53.84 53.11 50.73 49.93 51.12 50.96 48.80 50.59 50.81 46.87 46.85 48.50 48.11 47.46 50.52 48.63 44.87 43.24 45.23 44.91 46.79 48.41 49.41 47.06 45.70 45.33 45.69 44.35 44.22 43.21 43.48 46.59 47.60 47.49 47.74 48.56 48.74 48.52 48.66 48.07 48.26 48.54 49.18 49.93 48.72 48.77 48.16 49.37 48.53
55.27 53.30 54.78 56.67 53.05 54.13 53.11 55.32 50.02 52.65 51.02 50.07 50.24 50.32 46.61 46.39 46.54 47.53 50.90 45.61 44.84 48.47 49.65 49.27 48.32 49.26 48.02 47.46 47.63 48.38 47.94 46.74 46.93 46.84 45.54 45.93 45.79 46.48 46.70 47.63 47.85 47.54 48.15 48.11 47.99 48.17 48.53 49.76 50.29 50.10 49.76 49.04 49.14 49.24
54.16 54.18 54.30 53.78 50.18 46.53 43.29 56.46 50.05 49.50 45.85 47.61 48.71 46.10 44.80 44.98 48.74 51.23 45.34 46.76 47.26 50.17 50.23 49.93 50.36 51.37 49.50 49.99 49.98 49.74 50.02 49.01 47.37 47.50 47.03 47.69 48.16 48.90 48.68 48.50 48.87 47.92 46.87 47.98 48.66 48.43 48.46 47.62 48.28 48.87 49.79 49.22 49.53 48.31
50.07 52.50 50.12 49.43 48.71 44.20 52.68 49.33 52.57 49.45 48.16 45.76 45.12 43.80 44.38 46.99 49.84 47.16 42.90 45.90 47.26 49.12 49.37 50.76 50.18 48.96 49.45 49.84 48.05 48.68 49.46 50.18 48.70 48.66 49.18 48.10 47.30 47.84 48.34 48.04 48.88 49.42 48.35 48.85 47.49 47.72 47.56 48.08 46.50 47.47 48.45 47.71 48.39 48.47
44.89 45.18 45.42 36.66 49.73 48.29 45.87 45.51 46.65 45.36 43.44 46.34 44.76 44.66 46.06 49.39 43.31 41.59 42.49 45.10 46.80 47.12 48.67 50.24 49.87 49.66 48.29 48.67 49.81 50.15 51.43 49.87 48.67 48.30 49.88 50.79 50.04 49.19 48.78 49.10 48.64 48.39 50.28 48.47 47.70 47.78 47.21 46.81 45.56 48.30 47.13 47.11 47.38 47.77
39.87 48.15 42.38 49.03 48.83 45.57 43.78 41.85 43.52 43.07 43.82 44.20 46.01 48.41 49.37 45.88 41.84 41.31 44.40 46.16 46.96 48.12 48.72 49.04 48.97 48.14 48.47 49.71 49.06 49.15 50.09 51.72 50.24 47.85 50.31 50.28 48.99 48.14 46.52 46.45 46.36 47.19 50.32 49.37 47.50 46.34 45.81 45.46 45.62 47.57 47.12 45.51 43.05 47.15
40.70 47.42 49.27 53.84 50.93 47.09 46.70 47.50 47.09 45.76 44.27 44.34 46.65 46.64 45.53 40.28 40.63 45.68 48.75 49.70 48.98 50.49 52.26 51.99 51.40 49.36 49.01 49.27 51.22 52.14 52.43 52.90 51.73 50.10 50.85 50.63 50.52 50.87 49.34 46.79 46.18 48.17 50.40 50.23 49.33 48.20 47.11 47.03 47.49 46.66 47.18 47.08 47.20 47.45
49.67 50.79 45.19 50.15 51.23 52.56 48.04 47.59 46.39 46.14 46.75 49.99 48.74 44.71 43.76 44.06 44.48 49.63 50.25 52.43 52.67 53.56 53.02 53.26 53.77 52.00 50.92 51.82 51.15 51.37 51.33 51.38 51.36 50.02 49.81 49.50 49.67 50.09 49.51 48.90 48.92 42.38 47.98 49.52 49.51 49.62 48.94 48.46 47.92 47.59 47.59 46.83 47.33 47.86
50.35 53.22 52.84 50.55 49.82 49.65 50.26 46.80 46.73 48.29 51.37 50.64 47.67 46.24 47.51 50.98 51.80 51.37 52.00 52.46 52.65 53.05 52.30 50.40 51.85 51.47 51.50 52.15 52.65 51.40 51.03 49.49 47.72 46.52 46.01 44.20 44.46 45.44 48.39 48.68 48.67 49.65 48.70 48.35 42.33 46.81 48.37 46.70 48.22 48.37 48.02 47.52 48.40 48.36
50.79 53.88 51.06 48.94 48.18 46.69 48.39 51.03 49.79 51.84 52.67 52.15 52.28 51.07 50.88 52.22 52.95 54.03 52.85 51.74 50.73 50.54 51.09 51.57 52.32 51.02 49.20 48.72 48.94 50.01 50.88 50.25 49.01 47.51 46.28 45.21 45.86 47.46 48.22 48.94 49.17 49.09 49.15 48.21 47.46 47.09 43.37 47.48 44.97 47.41 47.36 46.85 46.38 47.08
54.05 53.28 50.92 50.11 49.27 50.88 50.92 52.39 53.24 52.86 51.09 51.01 52.70 50.71 49.37 51.44 52.91 53.87 53.25 53.05 52.29 52.07 51.34 50.80 50.76 51.78 50.11 49.47 48.90 48.57 47.99 50.45 51.90 52.82 50.67 49.49 49.17 49.31 49.61 50.30 50.25 50.59 50.21 48.70 47.87 47.51 47.71 46.39 47.63 47.47 46.85 46.59 46.77 45.59
51.02 50.77 48.31 46.81 49.34 52.22 52.66 51.82 51.12 50.60 50.03 49.89 48.90 49.79 49.40 49.53 48.06 51.30 53.57 53.47 52.15 51.13 50.22 51.09 50.93 50.96 52.33 51.67 51.33 52.91 46.96 51.05 51.09 51.30 51.62 50.84 51.47 51.38 50.75 51.06 50.92 50.92 50.33 49.48 49.18 48.78 48.67 47.34 47.12 47.30 47.68 47.43 47.67 47.72
50.59 50.56 50.89 50.56 49.84 48.75 50.71 50.83 50.17 49.73 50.50 49.55 49.41 49.92 49.89 49.33 47.59 51.52 55.03 55.06 53.34 52.53 52.08 53.00 53.59 54.19 54.34 52.19 52.33 50.26 48.67 48.77 43.61 38.99 38.95 39.15 39.56 43.88 49.60 50.01 50.40 51.03 50.67 49.83 49.23 48.89 48.58 48.86 48.19 48.00 47.31 47.98 48.33 48.59
MSLP
1017.03 1016.33 1015.56 1014.90 1014.41 1014.13 1013.82 1013.42 1013.10 1012.91 1012.70 1012.52 1012.50 1012.47 1012.60 1012.61 1012.83 1013.25 1013.02 1013.07 1013.21 1012.89 1011.81 1011.16 1010.85 1010.81 1010.63 1010.44 1010.93 1009.98 1008.17 1007.24 1006.95 1007.27 1007.79 1007.85 1007.14 1006.69 1006.68 1006.29 1006.97 1007.97 1008.76 1009.25 1009.73 1009.92 1009.86 1009.17 1008.89 1009.60 1011.42 1012.19 1012.82 1013.56
1016.07 1015.47 1014.79 1013.99 1013.22 1012.80 1012.60 1012.31 1012.13 1011.87 1011.77 1011.67 1011.71 1011.68 1011.78 1011.92 1012.18 1012.52 1012.84 1012.67 1012.89 1013.10 1012.14 1011.11 1010.36 1010.26 1010.47 1010.47 1011.25 1010.39 1008.56 1007.38 1006.79 1007.39 1007.95 1007.83 1007.59 1006.87 1006.72 1006.88 1006.78 1007.78 1008.04 1008.80 1009.39 1009.95 1010.21 1010.17 1010.56 1010.99 1011.55 1012.48 1013.27 1013.77
1015.28 1014.52 1013.58 1012.79 1012.08 1011.50 1011.11 1011.05 1010.90 1010.66 1010.59 1010.55 1010.57 1010.67 1010.85 1011.11 1011.39 1011.61 1011.93 1012.39 1012.91 1012.72 1011.97 1011.40 1010.31 1009.85 1010.38 1010.48 1010.74 1011.01 1008.52 1007.15 1006.54 1006.60 1007.61 1007.76 1007.94 1007.63 1006.85 1006.69 1006.61 1007.50 1007.68 1008.67 1009.43 1010.28 1010.46 1010.80 1011.07 1011.38 1011.88 1012.66 1013.23 1013.74
1014.55 1013.39 1012.60 1011.71 1010.82 1010.33 1010.31 1009.69 1009.65 1009.52 1009.37 1009.34 1009.47 1009.76 1009.93 1010.27 1010.52 1010.94 1011.16 1011.71 1011.91 1012.03 1011.43 1009.97 1009.05 1009.32 1009.25 1010.14 1010.35 1010.12 1009.21 1007.65 1007.10 1006.33 1007.07 1007.71 1007.80 1007.29 1007.12 1006.83 1006.52 1006.89 1007.74 1008.76 1009.49 1009.95 1010.64 1011.19 1011.34 1011.53 1012.08 1012.63 1013.26 1013.77
1013.97 1013.15 1012.08 1011.07 1010.12 1009.81 1009.63 1009.21 1008.84 1008.40 1008.22 1008.41 1008.58 1008.83 1009.17 1009.47 1009.93 1010.32 1010.68 1011.07 1011.21 1011.60 1011.00 1009.91 1008.77 1008.87 1009.17 1009.76 1009.58 1009.45 1008.77 1007.34 1006.72 1006.44 1006.89 1007.50 1007.19 1007.28 1007.36 1007.22 1007.38 1007.06 1007.71 1008.63 1009.41 1009.98 1010.38 1011.41 1011.52 1011.68 1012.19 1012.77 1013.27 1013.74
1013.82 1013.13 1012.38 1011.46 1010.76 1010.20 1009.74 1009.29 1008.54 1007.51 1007.28 1007.82 1008.04 1008.26 1008.63 1009.05 1009.56 1009.98 1010.55 1010.88 1010.83 1010.70 1010.75 1009.89 1008.68 1008.69 1008.98 1009.24 1009.25 1008.93 1006.84 1006.10 1005.97 1006.21 1006.61 1006.89 1006.96 1007.37 1007.76 1007.81 1007.33 1007.51 1007.61 1008.02 1009.32 1009.77 1010.47 1011.12 1011.55 1011.85 1012.29 1012.64 1013.07 1013.58
1013.86 1013.25 1012.68 1012.06 1011.41 1010.97 1010.56 1010.14 1009.49 1008.73 1008.27 1008.16 1007.98 1008.13 1008.69 1009.28 1009.59 1009.94 1010.28 1010.19 1010.38 1010.67 1010.44 1009.55 1008.91 1008.87 1009.22 1009.20 1008.25 1007.71 1007.10 1006.88 1005.88 1006.05 1006.30 1006.75 1007.30 1007.19 1007.82 1008.11 1007.60 1007.70 1008.14 1008.92 1009.49 1010.19 1011.06 1011.41 1011.89 1012.12 1012.45 1012.92 1013.25 1013.77
1014.03 1013.56 1013.09 1012.52 1012.03 1011.62 1011.28 1010.88 1010.38 1009.99 1009.79 1009.63 1009.57 1009.69 1009.84 1009.93 1010.07 1010.13 1010.20 1010.15 1010.38 1010.66 1010.16 1009.30 1009.09 1009.52 1009.12 1008.05 1007.07 1005.63 1005.42 1005.57 1005.75 1006.04 1006.01 1006.88 1007.68 1007.75 1008.28 1008.05 1007.92 1008.02 1008.38 1009.20 1009.91 1010.50 1011.21 1011.62 1011.97 1012.35 1012.66 1013.05 1013.59 1014.20
1014.13 1013.68 1013.29 1012.90 1012.49 1012.14 1011.86 1011.54 1011.19 1010.96 1010.86 1010.68 1010.47 1010.37 1010.41 1010.09 1009.58 1009.96 1010.12 1010.37 1010.61 1011.12 1009.96 1008.49 1008.02 1007.55 1006.47 1006.23 1005.99 1005.42 1005.48 1006.02 1005.98 1006.43 1006.60 1006.74 1007.35 1007.63 1007.74 1007.88 1007.97 1008.15 1008.60 1009.44 1010.15 1010.86 1011.38 1011.75 1012.08 1012.27 1012.67 1013.01 1013.36 1013.91
1013.99 1013.71 1013.46 1013.14 1012.90 1012.52 1012.26 1012.02 1011.66 1011.36 1011.21 1011.06 1010.92 1010.32 1009.57 1009.36 1009.01 1009.93 1010.77 1010.71 1010.82 1010.15 1009.82 1008.70 1007.30 1005.56 1005.04 1005.71 1005.82 1005.82 1005.82 1006.43 1006.53 1006.59 1006.45 1006.82 1006.90 1006.74 1006.77 1007.09 1007.51 1007.97 1008.53 1009.32 1010.37 1011.13 1011.43 1011.76 1012.03 1012.23 1012.51 1012.84 1013.11 1013.50
1013.91 1013.74 1013.55 1013.31 1013.04 1012.78 1012.53 1012.25 1011.86 1011.47 1011.13 1011.13 1010.66 1009.89 1009.38 1009.46 1009.53 1009.30 1009.13 1008.95 1008.69 1009.05 1008.77 1008.19 1007.55 1006.23 1005.00 1005.53 1005.84 1006.21 1006.55 1006.88 1007.22 1006.82 1006.76 1006.65 1006.51 1006.32 1006.21 1006.72 1007.17 1007.87 1008.73 1009.67 1010.54 1011.25 1011.67 1012.03 1012.38 1012.54 1012.82 1012.83 1013.24 1013.41
1013.88 1013.70 1013.58 1013.42 1013.12 1012.86 1012.63 1012.38 1012.01 1011.46 1010.99 1010.98 1011.08 1010.56 1009.74 1009.46 1009.24 1009.25 1008.55 1007.97 1007.71 1007.22 1006.58 1006.88 1006.54 1006.31 1006.24 1005.88 1006.25 1006.58 1006.67 1006.88 1007.17 1006.63 1006.97 1006.91 1006.61 1006.43 1006.47 1007.12 1007.78 1008.49 1009.34 1010.28 1010.94 1011.70 1012.14 1012.51 1012.93 1013.03 1013.05 1013.36 1013.44 1013.75
1013.76 1013.64 1013.55 1013.37 1013.12 1012.91 1012.68 1012.38 1012.07 1011.63 1010.60 1009.70 1009.96 1009.36 1008.84 1008.67 1008.63 1008.51 1008.54 1008.24 1007.93 1007.51 1007.16 1006.77 1006.26 1006.43 1006.93 1007.79 1007.65 1007.55 1007.33 1007.49 1007.02 1007.52 1007.52 1007.22 1006.77 1007.20 1007.65 1008.11 1008.82 1009.35 1010.13 1011.05 1011.78 1012.29 1012.61 1013.11 1013.39 1013.35 1013.42 1013.60 1013.66 1014.03
1013.64 1013.53 1013.42 1013.27 1013.06 1012.80 1012.52 1012.19 1011.85 1011.19 1010.69 1010.00 1009.52 1009.33 1008.87 1008.50 1008.88 1008.97 1008.83 1008.63 1008.48 1008.14 1007.70 1007.51 1007.26 1007.29 1007.55 1008.26 1008.75 1008.59 1008.38 1007.93 1008.16 1008.40 1007.85 1007.71 1007.67 1007.87 1008.34 1009.04 1009.65 1010.44 1011.17 1011.90 1012.39 1012.83 1013.08 1013.48 1013.63 1013.68 1013.85 1013.87 1014.19 1014.53
1013.56 1013.41 1013.27 1013.01 1012.75 1012.56 1012.28 1011.92 1011.60 1011.25 1010.61 1010.00 1009.29 1009.11 1008.89 1008.87 1008.67 1008.52 1008.72 1008.63 1008.40 1008.25 1008.05 1007.99 1008.44 1008.80 1008.94 1009.09 1009.09 1008.76 1008.83 1008.88 1009.02 1009.45 1008.63 1008.09 1008.55 1009.01 1009.47 1009.96 1010.55 1011.19 1011.95 1012.63 1013.17 1013.54 1013.70 1013.88 1014.01 1014.15 1014.25 1014.39 1014.43 1014.88
1013.44 1013.23 1012.85 1012.33 1012.36 1012.26 1012.03 1011.54 1010.60 1010.19 1009.84 1009.30 1008.81 1008.84 1008.77 1008.75 1008.73 1008.69 1008.75 1008.81 1008.84 1008.49 1008.47 1008.72 1009.23 1010.25 1010.90 1011.07 1010.44 1009.94 1010.09 1010.52 1011.05 1011.08 1010.53 1009.41 1009.74 1009.80 1010.21 1010.82 1011.40 1011.90 1012.62 1013.22 1013.70 1014.06 1014.28 1014.45 1014.58 1014.81 1014.85 1015.05 1015.12 1015.38
1013.45 1012.77 1012.47 1012.32 1012.21 1012.01 1011.85 1011.83 1010.00 1009.52 1008.95 1008.79 1008.94 1008.89 1008.80 1008.96 1009.17 1009.12 1008.96 1009.06 1008.98 1009.11 1009.68 1010.44 1011.04 1011.99 1012.34 1012.11 1011.98 1012.23 1012.44 1012.48 1012.37 1011.93 1011.21 1010.66 1010.68 1011.10 1011.27 1011.73 1012.23 1012.69 1013.36 1013.84 1014.21 1014.59 1014.81 1015.07 1015.12 1015.49 1015.83 1015.97 1016.04 1016.22
1013.02 1012.48 1012.49 1012.37 1012.23 1011.51 1010.58 1010.73 1009.86 1009.07 1008.84 1008.71 1009.03 1009.23 1008.87 1008.85 1009.20 1009.41 1009.53 1009.67 1009.58 1009.77 1010.74 1012.00 1012.81 1013.05 1013.28 1013.33 1013.31 1013.50 1013.38 1013.26 1012.98 1012.78 1012.17 1011.96 1011.83 1011.84 1012.23 1012.80 1013.09 1013.32 1013.97 1014.44 1014.78 1015.03 1015.27 1015.52 1015.72 1016.03 1016.30 1016.55 1016.62 1016.62
1013.19 1013.01 1012.69 1012.50 1012.36 1012.00 1010.49 1009.51 1009.10 1008.70 1008.52 1008.69 1008.89 1008.91 1008.97 1008.95 1009.16 1009.37 1009.67 1009.85 1010.34 1010.79 1011.63 1012.39 1013.04 1013.66 1013.94 1014.02 1014.02 1013.87 1013.74 1013.74 1013.59 1013.61 1013.30 1013.01 1013.16 1013.11 1013.39 1013.87 1013.94 1014.06 1014.59 1015.00 1015.22 1015.36 1015.49 1015.60 1015.81 1016.10 1016.27 1016.48 1016.63 1016.74
1013.10 1012.74 1012.47 1012.46 1012.41 1011.42 1010.18 1009.02 1008.52 1008.45 1008.26 1008.43 1008.24 1008.43 1008.66 1009.04 1009.29 1009.50 1009.69 1009.87 1010.37 1010.75 1011.44 1012.28 1013.20 1013.75 1013.98 1014.00 1014.00 1014.02 1014.07 1013.91 1013.98 1014.04 1014.16 1014.16 1014.03 1013.99 1014.50 1014.92 1014.97 1015.06 1015.19 1015.39 1015.58 1015.51 1015.77 1015.89 1016.03 1016.15 1016.34 1016.51 1016.66 1016.75
1012.68 1011.74 1011.81 1012.07 1011.31 1011.27 1010.13 1008.79 1008.45 1008.11 1007.99 1007.95 1007.93 1008.16 1009.29 1009.94 1009.21 1009.01 1009.47 1009.71 1010.31 1010.98 1011.72 1012.27 1012.92 1013.41 1013.70 1013.67 1013.94 1014.14 1014.22 1014.22 1014.27 1014.32 1014.51 1014.58 1014.82 1014.98 1015.15 1015.28 1015.36 1015.40 1015.54 1015.67 1015.82 1015.86 1015.86 1015.85 1016.04 1016.19 1016.34 1016.54 1016.70 1016.78
1012.02 1011.84 1011.61 1011.19 1010.87 1009.98 1009.15 1008.31 1008.41 1007.97 1008.02 1007.82 1007.63 1007.93 1008.98 1009.38 1009.16 1008.82 1009.04 1009.51 1010.27 1011.05 1011.64 1012.03 1012.56 1012.95 1013.27 1013.45 1013.70 1013.85 1014.16 1014.36 1014.49 1014.65 1014.77 1014.87 1014.95 1014.94 1014.84 1014.82 1014.93 1014.93 1014.86 1014.80 1015.20 1015.51 1015.65 1015.74 1015.91 1016.23 1016.44 1016.57 1016.71 1016.78
1012.00 1011.75 1011.22 1010.83 1010.47 1009.95 1009.24 1008.02 1008.32 1008.58 1008.86 1008.37 1007.99 1007.87 1008.69 1008.83 1008.41 1008.56 1008.93 1009.85 1010.57 1011.08 1011.41 1011.96 1012.33 1012.46 1012.65 1013.18 1013.51 1013.76 1013.83 1013.90 1013.98 1014.08 1014.32 1014.28 1014.30 1014.20 1014.11 1014.04 1013.95 1014.05 1014.21 1014.17 1014.30 1014.72 1015.21 1015.51 1015.66 1015.89 1016.17 1016.28 1016.57 1017.05
1012.19 1011.54 1010.95 1010.44 1010.10 1009.38 1008.42 1008.64 1008.83 1008.92 1009.06 1008.82 1008.26 1007.35 1007.59 1007.75 1008.21 1008.27 1008.96 1009.80 1010.43 1010.84 1011.36 1011.75 1011.94 1012.20 1012.53 1012.82 1012.94 1013.11 1013.29 1013.30 1013.30 1013.33 1013.20 1013.33 1013.40 1013.52 1013.59 1013.67 1013.62 1013.81 1014.23 1014.61 1014.87 1015.39 1015.76 1015.94 1015.69 1015.66 1015.86 1016.24 1016.80 1017.49
1012.31 1011.56 1011.16 1010.57 1009.75 1009.09 1008.85 1008.86 1009.06 1009.37 1008.91 1007.77 1006.98 1006.35 1006.57 1007.23 1008.04 1008.84 1008.56 1009.42 1009.87 1010.13 1010.69 1011.27 1011.60 1011.35 1011.53 1011.71 1011.67 1012.22 1012.52 1012.55 1012.68 1012.70 1012.68 1012.77 1013.02 1013.10 1013.20 1013.31 1013.52 1013.51 1013.69 1014.58 1015.08 1015.50 1016.00 1016.52 1017.19 1015.98 1016.46 1016.60 1016.99 1017.06
1011.37 1010.12 1009.85 1008.40 1008.36 1009.11 1009.35 1009.22 1009.38 1009.34 1008.97 1008.16 1006.06 1005.75 1006.39 1007.24 1008.26 1007.74 1007.59 1008.32 1008.93 1009.26 1009.60 1009.79 1010.00 1010.18 1010.10 1010.44 1010.79 1010.98 1011.41 1011.76 1012.02 1012.40 1012.18 1012.14 1012.33 1012.43 1012.69 1013.39 1013.42 1013.70 1013.54 1014.16 1014.86 1015.46 1016.10 1016.63 1016.53 1016.13 1016.06 1016.82 1016.95 1016.71
1010.33 1009.06 1008.75 1007.44 1007.63 1008.16 1008.40 1008.31 1008.27 1008.26 1007.22 1006.62 1005.35 1005.30 1006.32 1007.30 1007.57 1007.13 1007.30 1007.74 1008.26 1008.48 1008.65 1008.95 1009.35 1009.75 1009.54 1009.75 1010.00 1010.08 1010.46 1010.74 1010.98 1011.27 1011.39 1011.64 1011.82 1011.94 1012.47 1013.20 1013.74 1014.02 1013.50 1013.78 1014.45 1014.96 1015.47 1015.88 1016.04 1016.23 1016.45 1016.51 1016.72 1016.54
1008.83 1007.85 1007.50 1006.15 1005.48 1004.88 1004.52 1004.87 1005.40 1005.08 1004.52 1004.29 1004.45 1004.98 1005.47 1005.84 1006.35 1006.51 1006.89 1007.31 1007.71 1007.88 1008.06 1008.19 1008.33 1008.50 1008.90 1009.36 1009.59 1009.98 1010.42 1010.82 1011.03 1011.27 1011.54 1012.02 1012.42 1012.74 1013.13 1013.47 1013.72 1013.59 1013.78 1013.92 1014.33 1014.54 1014.95 1015.31 1015.51 1015.66 1015.78 1016.00 1016.88 1016.63
1007.41 1006.14 1005.52 1004.79 1004.10 1003.92 1003.71 1003.60 1003.66 1003.76 1003.85 1004.07 1004.32 1004.86 1005.14 1005.41 1005.75 1006.16 1006.70 1007.15 1007.55 1007.74 1007.84 1008.01 1008.12 1008.46 1008.84 1009.13 1009.45 1009.73 1010.14 1010.47 1010.98 1011.40 1011.61 1012.18 1012.75 1013.16 1013.18 1013.46 1013.75 1013.97 1014.39 1014.66 1014.78 1015.01 1015.27 1015.61 1015.69 1016.04 1016.29 1016.40 1016.62 1016.74
1005.89 1005.40 1005.12 1005.18 1003.92 1003.13 1003.46 1003.45 1003.68 1003.80 1003.77 1004.01 1004.48 1005.02 1005.34 1005.55 1005.81 1006.15 1006.55 1007.01 1007.42 1007.58 1007.59 1007.61 1007.83 1008.16 1008.62 1008.99 1009.40 1009.63 1009.91 1010.29 1010.67 1011.07 1011.36 1011.95 1012.51 1012.97 1013.25 1013.37 1013.51 1013.77 1014.15 1014.60 1014.99 1015.50 1015.73 1015.82 1016.17 1016.43 1016.55 1016.45 1016.54 1016.70
1004.87 1004.25 1003.88 1003.86 1003.47 1003.14 1003.20 1003.38 1003.41 1003.45 1003.67 1003.89 1004.34 1004.87 1005.47 1005.88 1006.01 1006.14 1006.44 1006.72 1006.98 1007.13 1007.27 1007.37 1007.68 1007.84 1008.24 1008.54 1009.03 1009.57 1009.70 1010.07 1010.40 1010.52 1010.96 1011.57 1012.02 1012.47 1012.97 1013.35 1013.75 1014.15 1014.50 1015.07 1015.51 1015.76 1015.90 1016.07 1016.00 1016.05 1016.44 1016.58 1016.54 1016.36
1004.92 1004.16 1004.33 1004.11 1003.74 1003.34 1003.19 1003.11 1003.09 1003.24 1003.38 1003.77 1004.38 1005.01 1005.46 1005.65 1005.79 1005.97 1006.07 1006.40 1006.61 1006.68 1006.91 1007.02 1007.31 1007.51 1007.86 1008.30 1008.82 1009.18 1009.43 1009.95 1010.60 1011.30 1011.61 1011.70 1012.01 1012.41 1013.05 1013.29 1013.63 1014.22 1014.60 1014.87 1014.89 1015.25 1015.56 1015.79 1015.99 1016.02 1015.95 1016.67 1016.65 1016.48
1004.88 1004.42 1004.17 1003.72 1003.29 1003.23 1003.20 1003.05 1002.90 1002.90 1002.90 1003.29 1003.65 1004.02 1004.30 1004.50 1004.91 1005.40 1005.55 1005.88 1006.21 1006.27 1006.49 1006.73 1006.87 1007.10 1007.71 1008.24 1008.96 1009.90 1010.40 1011.00 1011.26 1011.71 1012.17 1012.50 1012.69 1012.90 1013.04 1013.15 1013.43 1013.81 1013.99 1014.29 1014.46 1014.84 1015.12 1015.09 1015.15 1015.35 1015.69 1015.75 1015.80 1016.04
Wind_Speed
24 23 21 21 21 21 21 19 19 18 17 17 17 17 15 14 12 8 2 5 4 3 5 7 7 5 2 4 2 6 3 4 0 4 3 3 2 6 6 8 10 7 6 4 4 6 5 8 7 6 6 7 8 8
23 24 25 24 23 22 22 22 21 20 19 20 19 17 16 14 13 13 3 5 3 2 3 5 11 8 4 7 5 5 5 5 4 3 1 2 1 4 2 4 4 3 5 5 4 5 6 9 10 7 8 9 7 7
25 26 26 25 25 23 21 21 21 21 20 19 19 19 17 16 15 14 3 4 3 2 3 3 9 10 5 5 6 3 5 3 2 5 4 1 1 1 1 2 5 5 4 5 6 3 10 9 7 7 9 9 8 7
26 25 24 23 21 18 18 18 19 19 18 18 18 17 15 15 13 14 4 4 2 1 3 5 11 6 9 4 13 16 17 18 11 3 3 3 3 2 2 5 5 4 6 7 4 6 11 6 6 9 9 8 9 7
22 19 21 19 14 11 12 13 15 16 16 16 14 14 13 11 11 5 3 5 4 3 2 3 7 10 11 10 17 17 18 13 5 2 3 2 1 4 2 3 3 3 7 4 4 5 9 7 7 9 9 7 7 5
15 16 16 17 16 14 13 14 15 11 8 8 8 9 8 6 16 3 3 4 6 2 0 3 2 4 8 11 17 18 5 2 3 4 3 3 2 3 3 1 1 6 7 6 5 8 11 9 8 6 5 1 6 6
13 13 13 13 14 14 14 15 17 18 16 13 10 9 17 13 3 1 1 1 7 2 2 1 2 3 8 11 7 9 14 7 2 2 1 5 1 3 2 2 2 7 9 11 10 10 7 6 4 6 5 7 3 8
11 11 11 12 12 13 13 14 16 16 16 14 13 12 11 5 2 1 1 7 5 1 2 1 4 4 8 6 6 5 2 2 1 1 2 5 1 3 0 4 5 2 11 10 10 6 6 7 7 4 1 4 5 6
8 10 10 10 11 12 11 12 13 13 12 8 6 7 2 2 1 2 9 11 1 2 4 3 7 5 8 9 6 2 3 2 1 2 2 4 4 4 6 8 6 5 7 10 9 8 6 7 8 8 7 5 4 4
7 8 9 9 9 9 10 9 8 8 5 5 3 3 1 2 16 13 1 4 3 3 2 3 5 3 7 4 3 2 2 2 2 5 2 2 4 7 10 9 8 8 9 10 8 7 5 4 4 4 5 3 4 6
8 8 8 8 7 7 7 8 10 11 3 2 3 4 2 6 3 2 2 3 4 4 3 0 2 3 5 7 4 4 3 2 2 4 3 2 2 4 8 8 10 10 10 9 10 8 8 6 5 5 6 4 6 4
7 7 7 6 6 7 8 9 11 7 4 5 5 4 3 3 2 3 2 3 3 3 1 7 6 3 3 4 3 1 1 3 3 2 4 3 3 5 9 13 12 11 11 10 9 8 6 5 5 5 3 2 4 4
6 6 6 5 5 7 8 10 10 11 13 3 3 3 1 3 4 2 2 3 3 6 6 5 2 2 4 4 1 3 1 3 2 2 3 3 4 10 11 12 11 10 12 10 9 6 6 6 1 2 3 1 5 7
6 6 6 7 9 10 10 11 12 9 4 3 4 7 2 4 4 2 3 2 2 3 6 4 2 3 2 5 4 2 3 2 3 3 3 4 8 10 9 9 11 9 10 8 7 7 3 6 2 6 6 5 6 6
6 7 6 10 12 11 12 13 13 4 2 3 2 2 2 1 2 2 2 0 3 4 4 2 3 3 4 0 3 1 3 3 3 4 4 6 9 11 11 10 10 8 8 9 6 5 5 3 2 6 6 4 4 6
6 7 6 9 6 9 11 12 5 3 3 2 4 4 3 4 4 4 4 4 4 4 2 3 2 4 4 6 4 3 3 2 3 4 8 4 10 10 11 10 9 7 9 8 7 7 5 4 4 5 6 6 7 8
6 3 7 2 8 11 9 3 2 3 4 3 2 1 2 2 3 3 3 3 2 3 2 2 2 3 2 1 1 5 3 3 6 7 6 5 8 8 9 10 10 11 9 8 7 6 6 4 5 7 7 6 7 6
3 6 5 6 6 7 4 5 3 3 0 0 4 4 4 3 3 2 3 4 3 2 3 3 2 3 1 1 1 1 2 3 3 4 5 7 5 10 9 9 8 10 9 7 7 5 6 6 6 4 5 3 3 3
7 9 7 6 5 3 3 3 3 2 2 2 3 2 1 3 4 5 4 5 6 5 6 2 3 1 0 1 2 4 1 1 1 3 6 11 10 11 12 10 9 9 9 6 5 4 4 5 5 4 4 4 3 3
12 14 13 9 3 4 3 3 1 3 2 2 2 3 1 3 5 6 4 3 3 1 3 2 1 2 2 2 2 2 2 1 4 6 7 8 7 12 11 7 6 6 5 3 2 4 3 3 3 3 3 2 2 3
4 2 6 3 4 6 4 3 2 2 2 3 5 2 4 2 3 4 4 3 2 2 2 2 3 3 3 2 6 3 3 4 5 5 6 7 5 5 4 6 7 3 3 3 4 2 2 4 4 3 4 3 3 2
3 1 3 5 3 3 4 4 4 3 1 3 3 5 3 2 2 1 1 4 3 2 2 3 3 4 4 5 5 4 5 6 5 4 4 5 5 4 5 5 6 7 8 8 8 7 5 4 4 3 4 4 5 3
7 3 3 3 3 1 7 2 4 2 2 4 4 2 4 4 3 3 3 6 5 5 5 6 6 5 5 7 6 6 7 8 6 6 6 5 4 4 3 4 3 2 2 2 5 5 5 5 6 7 8 5 5 4
1 3 3 3 4 5 2 2 1 2 3 3 5 5 5 3 4 1 4 3 6 6 5 7 6 6 6 7 5 5 4 4 4 3 5 5 5 3 2 2 2 4 4 3 3 5 5 6 4 3 6 6 7 3
3 4 3 5 4 3 1 2 4 2 4 6 5 2 5 3 3 1 3 6 8 7 8 8 8 8 7 6 6 8 8 5 4 6 5 4 3 1 3 4 6 7 4 7 5 5 4 8 11 6 6 4 5 6
3 5 5 5 4 4 0 2 3 7 4 5 6 5 3 5 2 3 6 8 7 5 7 8 7 7 5 9 8 7 10 11 9 8 6 4 6 8 5 9 3 4 8 7 8 8 8 8 9 6 10 7 6 7
4 3 4 6 4 6 6 3 3 4 7 2 5 5 4 4 4 0 6 8 7 5 5 6 5 6 5 6 3 4 5 5 5 5 5 5 5 4 6 7 7 4 3 8 9 8 8 6 3 3 4 8 7 6
6 6 6 7 5 7 5 5 11 8 3 4 2 4 2 5 4 4 6 7 6 4 5 4 5 5 6 5 5 5 6 6 5 6 5 8 7 7 8 6 4 12 6 6 7 5 6 5 5 6 5 7 3 7
5 6 8 12 4 3 3 5 5 4 4 4 5 3 4 6 7 7 7 7 6 3 3 4 3 7 5 5 3 5 6 6 7 5 7 7 6 3 3 4 4 6 6 5 9 8 9 7 5 6 6 6 5 5
5 6 3 5 7 3 5 4 5 4 3 4 5 6 5 5 7 7 7 8 7 6 5 5 4 6 6 6 5 4 3 7 6 5 3 7 8 7 4 3 3 5 6 6 5 5 5 5 6 4 2 2 3 2
4 5 3 4 2 5 6 4 3 3 3 4 7 7 7 3 4 5 6 7 7 6 6 5 5 4 5 5 6 4 3 5 5 4 8 7 7 7 7 5 5 5 6 8 7 1 2 5 3 2 3 2 2 1
8 2 4 2 4 2 2 4 5 5 5 6 8 7 5 4 5 4 5 6 6 6 5 5 5 5 6 6 6 3 5 7 8 9 9 4 5 8 9 5 6 7 5 5 5 3 5 9 6 7 4 7 7 6
4 7 6 7 5 4 4 4 2 2 4 7 7 8 8 8 8 4 5 6 6 6 7 6 5 5 9 9 9 10 12 9 12 15 14 12 11 7 4 3 3 8 10 9 8 6 8 9 9 12 10 13 11 9
Wind_Direction
314 308 301 297 295 292 287 283 278 275 272 270 268 264 260 246 220 183 208 195 182 216 247 229 202 194 189 109 163 273 243 272 84 90 108 242 220 219 230 188 154 165 170 185 188 205 224 337 28 70 156 99 99 87
308 304 301 295 289 285 282 278 274 270 266 265 264 260 254 247 232 193 199 198 182 225 286 298 254 235 273 114 110 270 297 243 188 106 2 186 309 352 263 152 115 169 148 154 116 149 135 76 103 87 93 100 80 90
309 305 301 295 291 286 279 276 271 266 262 259 257 254 247 239 226 202 159 136 125 251 265 244 223 227 173 190 168 276 302 279 298 168 159 181 161 307 282 258 120 122 120 101 99 176 123 119 116 109 93 105 98 84
313 313 309 303 296 289 284 281 276 268 261 255 252 250 245 236 218 198 167 161 132 193 250 261 218 192 186 202 250 248 278 286 265 153 118 158 166 235 351 276 97 158 108 130 120 127 132 101 107 149 133 127 128 122
324 329 332 334 333 319 314 306 290 273 259 251 247 243 236 221 203 186 152 174 190 205 192 253 208 210 172 208 255 274 271 251 287 103 110 173 248 39 237 18 115 125 143 145 173 132 112 118 91 74 111 134 119 131
335 345 359 19 28 29 17 15 357 334 257 231 240 228 197 195 143 156 151 177 205 201 210 250 209 149 174 240 255 267 307 295 169 155 195 100 116 120 91 179 91 78 62 84 118 98 96 109 105 93 90 46 152 158
344 351 2 13 17 22 22 23 28 44 64 72 83 129 131 121 78 79 170 124 162 81 238 221 46 53 213 240 242 235 223 228 174 200 213 129 142 98 63 159 6 102 106 91 93 95 78 108 114 83 55 75 68 97
345 355 8 9 17 30 28 31 33 37 45 54 66 83 109 59 320 150 74 131 116 245 249 190 81 136 204 236 229 233 135 114 12 137 2 95 36 79 247 250 282 216 116 108 108 93 101 97 92 119 125 158 188 160
337 350 0 13 16 27 24 28 25 30 30 39 76 106 200 247 172 118 148 137 62 334 313 254 142 169 195 214 200 139 139 145 208 115 263 107 153 185 186 208 223 171 141 139 128 145 160 167 183 182 183 221 203 201
336 347 347 3 8 13 11 12 0 350 349 337 294 250 80 45 109 122 148 150 184 229 238 300 333 180 160 80 258 142 114 66 103 216 179 208 223 201 178 182 187 139 124 130 137 170 173 196 208 207 229 245 227 197
326 334 339 346 356 3 360 341 333 333 295 231 285 33 46 163 212 249 248 229 180 184 204 93 325 292 162 169 154 123 346 124 140 257 162 244 220 195 178 162 131 118 116 98 87 75 65 54 23 14 28 15 85 58
318 326 329 331 344 341 338 345 338 318 324 299 300 273 235 219 244 284 282 305 354 326 42 168 198 172 3 4 89 333 204 142 200 250 105 209 234 39 112 114 113 109 104 95 97 96 92 77 36 330 94 46 98 82
315 319 310 317 327 326 332 339 333 301 286 244 238 242 117 217 27 349 111 290 353 347 3 354 34 57 61 23 62 11 121 207 120 92 214 238 189 122 113 108 100 97 99 100 100 101 97 105 207 346 85 137 73 95
311 307 291 289 297 307 318 323 328 331 285 329 322 330 349 13 52 31 1 25 337 344 344 358 14 16 75 53 356 120 283 30 169 197 231 146 127 119 110 104 105 107 109 115 99 93 112 148 213 98 63 78 97 106
306 301 298 281 264 278 295 306 306 277 275 268 240 14 23 345 259 325 116 53 25 335 347 28 53 36 355 213 243 199 201 218 151 224 324 141 122 114 114 109 102 96 98 100 108 113 77 43 62 87 79 71 111 126
309 295 239 243 257 272 297 310 265 204 246 254 29 343 14 10 24 10 86 51 5 313 22 359 67 77 34 331 294 360 352 51 48 337 312 113 114 118 115 107 110 110 101 105 98 96 94 76 78 84 81 62 51 75
311 267 24 312 280 287 277 272 271 242 285 26 307 226 75 57 32 34 50 55 316 31 57 50 61 65 272 221 340 9 38 356 331 323 324 50 120 121 106 103 99 103 105 104 92 95 94 71 90 86 63 47 76 71
259 7 321 304 320 301 213 200 265 273 282 295 54 344 41 99 104 46 36 15 9 53 36 70 84 44 56 230 91 44 299 329 316 356 356 81 40 108 111 114 116 118 107 112 124 125 123 119 96 98 122 135 110 116
315 314 302 295 341 300 270 240 226 298 41 126 153 172 171 73 89 93 106 80 78 104 121 95 60 32 10 346 294 293 229 281 18 48 61 71 78 77 75 68 69 71 108 117 128 148 141 147 138 152 151 168 162 156
289 279 270 272 339 272 271 237 175 286 228 210 195 175 161 96 125 133 155 147 134 211 90 80 107 195 215 248 260 63 39 48 119 103 87 73 68 74 75 87 85 80 61 25 36 63 110 91 124 140 115 125 78 121
237 244 176 209 220 219 275 308 285 159 275 224 209 166 113 282 230 130 149 159 77 65 77 126 170 162 217 199 121 132 89 79 70 85 101 88 81 118 146 150 164 172 171 183 168 200 132 196 189 172 155 168 138 104
278 288 296 186 270 246 226 244 149 257 142 275 271 151 142 153 179 125 189 106 87 89 102 110 106 143 140 142 144 122 136 132 137 141 144 139 159 192 196 203 204 217 209 194 189 177 203 195 179 201 162 189 149 166
285 234 239 243 276 329 256 274 62 349 353 307 314 158 186 205 132 142 88 81 104 120 124 130 166 176 122 138 146 156 185 177 174 162 170 193 196 224 205 211 220 141 23 79 89 121 134 189 187 156 185 189 139 157
199 259 250 246 220 249 167 84 174 210 207 236 208 191 178 145 158 238 100 129 127 127 143 153 159 148 150 158 164 167 199 246 132 189 196 180 178 163 131 258 258 61 136 95 85 74 34 347 183 148 124 107 113 52
282 280 140 283 263 259 158 312 89 358 293 232 257 162 133 104 83 226 155 147 161 162 161 182 206 181 172 193 174 166 177 208 219 196 196 195 221 15 180 198 152 152 159 116 133 100 74 39 318 116 102 115 110 34
259 222 174 243 113 32 119 86 220 195 213 242 250 117 65 63 272 217 154 144 151 171 180 197 198 184 199 173 178 178 186 194 189 228 189 206 235 186 152 201 171 171 161 135 126 129 134 169 256 182 122 129 169 171
257 344 323 291 146 142 176 162 237 177 195 255 293 131 109 114 191 241 116 139 157 177 185 169 158 177 218 134 163 119 104 82 86 79 81 76 70 65 109 102 110 252 139 135 145 152 169 174 124 46 277 156 183 225
253 198 205 263 261 240 275 152 183 203 165 184 88 48 116 152 180 141 138 141 149 172 189 176 177 160 135 149 140 133 112 106 103 95 94 83 69 67 93 96 87 75 56 69 82 71 127 171 159 137 102 122 4 6
247 266 289 293 35 24 334 29 44 49 15 60 79 102 100 87 119 124 131 132 145 183 185 167 186 116 121 108 120 138 153 143 129 156 156 134 122 112 118 138 169 125 102 81 71 83 69 47 52 76 55 71 63 38
247 267 251 347 302 63 70 45 69 55 48 102 108 111 99 89 119 133 139 147 161 184 201 201 150 146 145 148 169 150 175 138 156 177 174 139 145 146 157 196 136 133 138 136 113 101 78 128 113 123 110 67 92 88
227 261 308 17 296 93 100 108 126 122 115 81 73 100 108 135 138 151 156 159 173 187 200 171 167 164 147 166 138 160 187 138 93 107 133 137 146 158 155 125 94 79 85 95 62 237 227 94 252 292 331 334 190 294
322 307 143 165 272 84 187 222 205 170 151 138 123 126 139 166 164 168 166 165 191 184 189 181 175 186 171 133 124 165 184 124 104 73 41 85 69 114 130 149 138 125 155 154 212 190 192 170 207 247 261 156 248 242
238 242 253 249 218 169 205 260 253 229 185 164 161 170 185 186 168 159 168 173 202 196 174 201 187 140 119 123 107 84 82 97 102 101 95 88 82 65 65 50 92 186 184 187 208 204 206 222 211 210 208 212 203 196